Weather History for Port Angeles, WA

Change the Weather History Date:

Friday, May 11, 2012

  Actual Average Record
Temperature  
Mean Temperature 48 °F -  
Max Temperature 60 °F 59 °F 73 °F (1997)
Min Temperature 36 °F 43 °F 34 °F (1999)
Degree Days  
Heating Degree Days 18    
Moisture  
Dew Point 34 °F    
Average Humidity 60    
Maximum Humidity 86    
Minimum Humidity 31    
Precipitation  
Precipitation 0.00 in - - ()
Sea Level Pressure  
Sea Level Pressure 30.32 in    
Wind  
Wind Speed 6 mph (SSE)    
Max Wind Speed 10 mph    
Max Gust Speed -    
Visibility 10 miles    
Events      
Averages and records for this station are not official NWS values.
T = Trace of Precipitation, MM = Missing Value Source: NWS Daily Summary

Daily Weather History Graph

Daily Weather History Graph

Search for Another Location

Airport:

Trip Planner

Search our weather history database for the weather conditions in past years. The results will help you decide how hot, cold, wet, or windy it might be!

Date:

Astronomy

May. 11, 2012 Rise Set
Actual Time 5:39 AM PDT 8:42 PM PDT
Civil Twilight 5:02 AM PDT 9:18 PM PDT
Nautical Twilight 4:15 AM PDT 10:06 PM PDT
Astronomical Twilight 3:17 AM PDT 11:05 PM PDT
Moon 1:21 AM PDT (5/11) 11:24 AM PDT (5/11)
Length of Visible Light 16h 16m
Length of Day
15h 02m
Waning Gibbous, 62% of the Moon is Illuminated
May 11
Waning Gibbous
May 12
Last Quarter
May 20
New
May 28
First Quarter
Jun 4
Full

Hourly Weather History & Observations

Time (PDT) Temp. Windchill Dew Point Humidity Pressure Visibility Wind Dir Wind Speed Gust Speed Precip Events Conditions
12:53 AM 43.0 °F 39.5 °F 36.0 °F 76% 30.38 in 10.0 mi West 5.8 mph - N/A   Clear
1:53 AM 42.1 °F 39.2 °F 36.0 °F 79% 30.37 in 10.0 mi West 4.6 mph - N/A   Clear
2:53 AM 39.9 °F 35.1 °F 35.1 °F 83% 30.37 in 10.0 mi SW 6.9 mph - N/A   Clear
3:53 AM 37.9 °F 35.5 °F 33.1 °F 83% 30.37 in 10.0 mi SSW 3.5 mph - N/A   Clear
4:53 AM 36.0 °F - 32.0 °F 86% 30.37 in 10.0 mi Calm Calm - N/A   Clear
5:53 AM 37.9 °F 32.1 °F 32.0 °F 79% 30.36 in 10.0 mi SW 8.1 mph - N/A   Clear
6:53 AM 41.0 °F 38.0 °F 33.1 °F 73% 30.36 in 10.0 mi SSW 4.6 mph - N/A   Clear
7:53 AM 46.9 °F - 35.1 °F 63% 30.37 in 10.0 mi WSW 3.5 mph - N/A   Clear
8:53 AM 52.0 °F - 34.0 °F 50% 30.37 in 10.0 mi ENE 3.5 mph - N/A   Clear
9:53 AM 52.0 °F - 37.9 °F 59% 30.37 in 10.0 mi Variable 6.9 mph - N/A   Clear
10:53 AM 53.1 °F - 39.0 °F 59% 30.37 in 10.0 mi ENE 8.1 mph - N/A   Clear
11:53 AM 53.1 °F - 41.0 °F 64% 30.35 in 10.0 mi East 10.4 mph - N/A   Clear
12:53 PM 55.0 °F - 39.9 °F 57% 30.34 in 10.0 mi East 8.1 mph - N/A   Clear
1:53 PM 55.9 °F - 37.9 °F 51% 30.32 in 10.0 mi East 8.1 mph - N/A   Clear
2:53 PM 57.0 °F - 33.1 °F 40% 30.31 in 10.0 mi ENE 6.9 mph - N/A   Clear
3:53 PM 57.9 °F - 30.9 °F 36% 30.30 in 10.0 mi East 8.1 mph - N/A   Clear
4:53 PM 59.0 °F - 30.0 °F 33% 30.27 in 10.0 mi East 8.1 mph - N/A   Clear
5:53 PM 59.0 °F - 28.0 °F 31% 30.25 in 10.0 mi East 6.9 mph - N/A   Clear
6:53 PM 57.9 °F - 28.9 °F 33% 30.24 in 10.0 mi ESE 4.6 mph - N/A   Clear
7:53 PM 57.0 °F - 30.9 °F 37% 30.24 in 10.0 mi ESE 3.5 mph - N/A   Clear
8:53 PM 51.1 °F - 36.0 °F 56% 30.24 in 10.0 mi SSE 3.5 mph - N/A   Clear
9:53 PM 46.0 °F 43.9 °F 36.0 °F 68% 30.24 in 10.0 mi SW 4.6 mph - N/A   Clear
10:53 PM 42.1 °F 40.2 °F 34.0 °F 73% 30.24 in 10.0 mi SSW 3.5 mph - N/A   Clear
11:53 PM 43.0 °F 41.3 °F 32.0 °F 65% 30.25 in 10.0 mi SW 3.5 mph - N/A   Clear